TimePST,TemperatureF,Dew PointF,Humidity,Sea Level PressureIn,VisibilityMPH,Wind Direction,Wind SpeedMPH,Gust SpeedMPH,PrecipitationIn,Events,Conditions,WindDirDegrees,DateUTC
12:34 AM,35.6,33.8,93,30.26,1.8,Calm,Calm,-,N/A,,Clear,0,2013-01-04 08:34:00
12:44 AM,33.8,32.0,93,30.26,3.0,Calm,Calm,-,N/A,,Clear,0,2013-01-04 08:44:00
12:48 AM,33.8,32.0,93,30.27,1.8,Calm,Calm,-,N/A,,Clear,0,2013-01-04 08:48:00
12:53 AM,34.0,32.0,92,30.25,1.5,Calm,Calm,-,N/A,,Partly Cloudy,0,2013-01-04 08:53:00
12:58 AM,33.8,32.0,93,30.26,3.0,Calm,Calm,-,N/A,,Scattered Clouds,0,2013-01-04 08:58:00
1:08 AM,33.8,32.0,93,30.26,1.5,Calm,Calm,-,N/A,,Mostly Cloudy,0,2013-01-04 09:08:00
1:26 AM,33.8,32.0,93,30.27,1.2,Calm,Calm,-,N/A,,Scattered Clouds,0,2013-01-04 09:26:00
1:53 AM,33.1,32.0,96,30.25,1.8,NNW,3.5,-,N/A,,Clear,330,2013-01-04 09:53:00
1:59 AM,33.8,30.2,87,30.27,3.0,NNW,3.5,-,N/A,,Clear,330,2013-01-04 09:59:00
2:53 AM,34.0,32.0,92,30.25,7.0,North,4.6,-,N/A,,Clear,350,2013-01-04 10:53:00
3:53 AM,33.1,32.0,96,30.23,6.0,Calm,Calm,-,N/A,,Clear,0,2013-01-04 11:53:00
4:03 AM,33.8,32.0,93,30.25,2.0,Calm,Calm,-,N/A,,Clear,0,2013-01-04 12:03:00
4:12 AM,33.8,32.0,93,30.25,6.0,Calm,Calm,-,N/A,,Clear,0,2013-01-04 12:12:00
4:53 AM,33.1,30.9,92,30.24,7.0,Calm,Calm,-,N/A,,Clear,0,2013-01-04 12:53:00
5:53 AM,32.0,30.0,92,30.25,6.0,Calm,Calm,-,N/A,,Clear,0,2013-01-04 13:53:00
6:53 AM,30.9,28.9,92,30.25,5.0,West,4.6,-,N/A,Fog,Patches of Fog,270,2013-01-04 14:53:00
7:53 AM,32.0,30.0,92,30.26,6.0,Calm,Calm,-,N/A,Fog,Patches of Fog,0,2013-01-04 15:53:00
8:53 AM,36.0,34.0,93,30.27,10.0,Calm,Calm,-,N/A,Fog,Patches of Fog,0,2013-01-04 16:53:00
9:53 AM,42.1,37.9,85,30.28,9.0,WNW,3.5,-,N/A,,Scattered Clouds,300,2013-01-04 17:53:00
10:53 AM,46.9,37.9,71,30.27,9.0,Calm,Calm,-,N/A,,Scattered Clouds,0,2013-01-04 18:53:00
11:53 AM,50.0,37.0,61,30.24,9.0,Calm,Calm,-,N/A,,Scattered Clouds,0,2013-01-04 19:53:00
12:53 PM,53.1,37.0,55,30.20,9.0,Calm,Calm,-,N/A,,Scattered Clouds,0,2013-01-04 20:53:00
1:53 PM,55.9,36.0,47,30.18,9.0,Calm,Calm,-,N/A,,Clear,0,2013-01-04 21:53:00
2:53 PM,57.9,37.9,47,30.17,9.0,SSE,3.5,-,N/A,,Clear,160,2013-01-04 22:53:00
3:53 PM,55.9,37.9,51,30.17,9.0,SSE,6.9,-,N/A,,Scattered Clouds,160,2013-01-04 23:53:00
4:53 PM,52.0,37.9,59,30.16,9.0,SSE,5.8,-,N/A,,Scattered Clouds,160,2013-01-05 00:53:00
5:53 PM,48.0,37.0,66,30.18,10.0,South,4.6,-,N/A,,Scattered Clouds,170,2013-01-05 01:53:00
6:53 PM,44.1,37.0,76,30.18,10.0,Calm,Calm,-,N/A,,Clear,0,2013-01-05 02:53:00
7:53 PM,41.0,36.0,82,30.19,10.0,Calm,Calm,-,N/A,,Clear,0,2013-01-05 03:53:00
8:53 PM,39.9,36.0,86,30.20,9.0,Calm,Calm,-,N/A,,Clear,0,2013-01-05 04:53:00
9:53 PM,37.0,35.1,93,30.20,7.0,Calm,Calm,-,N/A,,Clear,0,2013-01-05 05:53:00
10:53 PM,36.0,35.1,97,30.22,5.0,Calm,Calm,-,N/A,,Clear,0,2013-01-05 06:53:00
11:45 PM,37.4,33.8,87,30.22,1.8,Calm,Calm,-,N/A,,Clear,0,2013-01-05 07:45:00
11:53 PM,34.0,32.0,92,30.21,1.0,Calm,Calm,-,N/A,,Clear,0,2013-01-05 07:53:00